When you browse on this site, cookies collect data to enhance your experience and personalize the content and advertising you see.
Visit our Privacy Policy to learn more. By continuing to use the site, you agree to this use of cookies and data.
  • In Hungary
  • List of Countries
  • For 7 days
  • Water Temperature
  • Weather Map
  • News
  • Weather Widgets
  • user-avatar
    Login

    Hourly Weather Novyy

    Today, 20 January, Monday

    Time Temperature Precipitation Wind Pressure Humidity
    00:00 0°C° 0 mm 5 mps 746 mmHg 89%
    01:00 0°C° 0 mm 5 mps 746 mmHg 87%
    02:00 0°C° 0 mm 5 mps 746 mmHg 87%
    03:00 0°C° 0 mm 5 mps 746 mmHg 88%
    04:00 -1°C° 0 mm 5 mps 746 mmHg 89%
    05:00 -1°C° 0 mm 5 mps 746 mmHg 90%
    06:00 -1°C° 0 mm 5 mps 746 mmHg 91%
    07:00 -1°C° 0 mm 5 mps 746 mmHg 92%
    08:00 -1°C° 0 mm 5 mps 746 mmHg 93%
    09:00 -1°C° 0 mm 5 mps 746 mmHg 91%
    10:00 -1°C° 0 mm 5 mps 746 mmHg 90%
    11:00 -1°C° 0 mm 5 mps 746 mmHg 88%
    12:00 -1°C° 0 mm 5 mps 746 mmHg 89%
    13:00 -1°C° 0 mm 5 mps 746 mmHg 91%
    14:00 -1°C° 0 mm 5 mps 746 mmHg 93%
    15:00 -1°C° 0 mm 5 mps 746 mmHg 90%
    16:00 -1°C° 0 mm 5 mps 745 mmHg 88%
    17:00 -1°C° 0 mm 5 mps 745 mmHg 86%
    18:00 -1°C° 0 mm 5 mps 744 mmHg 85%
    19:00 -1°C° 0 mm 5 mps 744 mmHg 83%
    20:00 -1°C° 0 mm 5 mps 744 mmHg 82%
    21:00 -2°C° 0 mm 5 mps 743 mmHg 84%
    22:00 -2°C° 0 mm 5 mps 742 mmHg 86%
    23:00 -2°C° 0 mm 5 mps 741 mmHg 88%

    Tomorrow, 21 January, Tuesday

    Time Temperature Precipitation Wind Pressure Humidity
    00:00 -2°C° 0 mm 5 mps 741 mmHg 87%
    01:00 -1°C° 0 mm 5 mps 740 mmHg 87%
    02:00 -1°C° 0 mm 5 mps 739 mmHg 86%
    03:00 -2°C° 0.2 mm 6 mps 738 mmHg 87%
    04:00 -2°C° 0.2 mm 6 mps 737 mmHg 88%
    05:00 -1°C° 0.2 mm 6 mps 736 mmHg 90%
    06:00 -1°C° 0.2 mm 6 mps 736 mmHg 89%
    07:00 +1°C° 0.2 mm 6 mps 735 mmHg 89%
    08:00 +1°C° 0.2 mm 6 mps 734 mmHg 89%
    09:00 +2°C° 0.2 mm 6 mps 734 mmHg 88%
    10:00 +2°C° 0.2 mm 6 mps 733 mmHg 88%
    11:00 +2°C° 0.2 mm 6 mps 733 mmHg 88%
    12:00 +2°C° 0.1 mm 6 mps 732 mmHg 89%
    13:00 +3°C° 0.1 mm 5 mps 732 mmHg 90%
    14:00 +3°C° 0.1 mm 5 mps 731 mmHg 90%
    15:00 +3°C° 1.3 mm 5 mps 730 mmHg 92%
    16:00 +2°C° 1.3 mm 5 mps 729 mmHg 93%
    17:00 +3°C° 1.3 mm 4 mps 728 mmHg 94%
    18:00 +2°C° 0.3 mm 5 mps 728 mmHg 88%
    19:00 +1°C° 0.3 mm 6 mps 729 mmHg 82%
    20:00 -1°C° 0.3 mm 7 mps 729 mmHg 75%
    21:00 -1°C° 0 mm 7 mps 729 mmHg 75%
    22:00 -2°C° 0 mm 7 mps 729 mmHg 75%
    23:00 -3°C° 0 mm 6 mps 730 mmHg 75%

    Day after tomorrow, 22 January, Wednesday

    Time Temperature Precipitation Wind Pressure Humidity
    00:00 -3°C° 0 mm 6 mps 730 mmHg 75%
    01:00 -4°C° 0 mm 6 mps 730 mmHg 75%
    02:00 -4°C° 0 mm 6 mps 730 mmHg 76%
    03:00 -4°C° 0 mm 6 mps 729 mmHg 78%
    04:00 -4°C° 0 mm 6 mps 728 mmHg 80%
    05:00 -4°C° 0 mm 6 mps 727 mmHg 82%
    06:00 -4°C° 0.1 mm 6 mps 726 mmHg 82%
    07:00 -4°C° 0.1 mm 5 mps 726 mmHg 83%
    08:00 -4°C° 0.1 mm 5 mps 725 mmHg 83%
    09:00 -4°C° 0.3 mm 5 mps 725 mmHg 81%
    10:00 -4°C° 0.3 mm 6 mps 725 mmHg 79%
    11:00 -3°C° 0.3 mm 6 mps 725 mmHg 77%
    12:00 -4°C° 0.1 mm 6 mps 725 mmHg 74%
    13:00 -4°C° 0.1 mm 6 mps 725 mmHg 70%
    14:00 -4°C° 0.1 mm 5 mps 725 mmHg 67%
    15:00 -4°C° 0 mm 5 mps 725 mmHg 71%
    16:00 -5°C° 0 mm 5 mps 726 mmHg 76%
    17:00 -5°C° 0 mm 5 mps 726 mmHg 80%
    18:00 -5°C° 0 mm 5 mps 727 mmHg 79%
    19:00 -5°C° 0 mm 5 mps 727 mmHg 77%
    20:00 -6°C° 0 mm 5 mps 727 mmHg 75%
    21:00 -6°C° 0.1 mm 5 mps 728 mmHg 74%
    22:00 -6°C° 0.1 mm 6 mps 728 mmHg 73%
    23:00 -6°C° 0.1 mm 6 mps 729 mmHg 71%

    23 January, Thursday

    Time Temperature Precipitation Wind Pressure Humidity
    00:00 -8°C° 0 mm 7 mps 730 mmHg 69%
    01:00 -8°C° 0 mm 7 mps 731 mmHg 68%
    02:00 -9°C° 0 mm 7 mps 731 mmHg 66%
    03:00 -9°C° 0 mm 6 mps 732 mmHg 64%
    04:00 -9°C° 0 mm 6 mps 732 mmHg 63%
    05:00 -9°C° 0 mm 6 mps 733 mmHg 61%
    06:00 -9°C° 0 mm 6 mps 733 mmHg 59%
    07:00 -9°C° 0 mm 6 mps 733 mmHg 56%
    08:00 -9°C° 0 mm 6 mps 733 mmHg 54%
    09:00 -9°C° 0.1 mm 7 mps 734 mmHg 58%
    10:00 -9°C° 0.1 mm 7 mps 734 mmHg 62%
    11:00 -8°C° 0.1 mm 7 mps 735 mmHg 65%
    12:00 -8°C° 0 mm 6 mps 735 mmHg 61%
    13:00 -8°C° 0 mm 6 mps 736 mmHg 57%
    14:00 -8°C° 0 mm 6 mps 736 mmHg 53%
    15:00 -8°C° 0 mm 5 mps 737 mmHg 54%
    16:00 -8°C° 0 mm 5 mps 737 mmHg 56%
    17:00 -8°C° 0 mm 5 mps 738 mmHg 58%
    18:00 -9°C° 0 mm 4 mps 738 mmHg 58%
    19:00 -8°C° 0 mm 3 mps 738 mmHg 59%
    20:00 -8°C° 0 mm 3 mps 738 mmHg 60%
    21:00 -8°C° 0 mm 3 mps 738 mmHg 60%
    22:00 -8°C° 0 mm 3 mps 738 mmHg 60%
    23:00 -8°C° 0 mm 3 mps 738 mmHg 60%

    24 January, Friday

    Time Temperature Precipitation Wind Pressure Humidity
    00:00 -7°C° 0 mm 3 mps 738 mmHg 65%
    01:00 -7°C° 0 mm 3 mps 737 mmHg 70%
    02:00 -6°C° 0 mm 3 mps 737 mmHg 74%
    03:00 -7°C° 0.1 mm 4 mps 736 mmHg 80%
    04:00 -5°C° 0.1 mm 4 mps 735 mmHg 86%
    05:00 -6°C° 0.1 mm 5 mps 734 mmHg 91%
    06:00 -6°C° 0.1 mm 5 mps 734 mmHg 90%
    07:00 -5°C° 0.1 mm 5 mps 733 mmHg 89%
    08:00 -5°C° 0.1 mm 5 mps 733 mmHg 88%
    09:00 -3°C° 0 mm 4 mps 732 mmHg 90%
    10:00 -2°C° 0 mm 4 mps 732 mmHg 91%
    11:00 -1°C° 0 mm 4 mps 732 mmHg 93%
    12:00 -1°C° 0 mm 4 mps 732 mmHg 92%
    13:00 0°C° 0 mm 4 mps 732 mmHg 91%
    14:00 +1°C° 0 mm 4 mps 732 mmHg 90%
    15:00 0°C° 0 mm 5 mps 732 mmHg 90%
    16:00 0°C° 0 mm 5 mps 732 mmHg 90%
    17:00 0°C° 0 mm 5 mps 732 mmHg 90%
    18:00 0°C° 0 mm 4 mps 733 mmHg 90%
    19:00 +1°C° 0 mm 3 mps 733 mmHg 91%
    20:00 0°C° 0 mm 3 mps 733 mmHg 91%
    21:00 +1°C° 0.1 mm 2 mps 733 mmHg 93%
    22:00 +1°C° 0.1 mm 2 mps 733 mmHg 95%
    23:00 -1°C° 0.1 mm 2 mps 733 mmHg 96%

    25 January, Saturday

    Time Temperature Precipitation Wind Pressure Humidity
    00:00 +1°C° 0.3 mm 2 mps 733 mmHg 97%
    01:00 +1°C° 0.3 mm 2 mps 732 mmHg 97%
    02:00 +1°C° 0.3 mm 2 mps 732 mmHg 98%
    03:00 +1°C° 0.4 mm 3 mps 732 mmHg 97%
    04:00 +1°C° 0.4 mm 3 mps 732 mmHg 97%
    05:00 +1°C° 0.4 mm 3 mps 731 mmHg 97%
    06:00 +1°C° 0.3 mm 3 mps 731 mmHg 97%
    07:00 +1°C° 0.3 mm 3 mps 731 mmHg 96%
    08:00 +1°C° 0.3 mm 3 mps 731 mmHg 96%
    09:00 +1°C° 0.3 mm 3 mps 732 mmHg 96%
    10:00 +1°C° 0.3 mm 3 mps 732 mmHg 96%
    11:00 +2°C° 0.3 mm 3 mps 732 mmHg 97%
    12:00 +2°C° 0.1 mm 3 mps 732 mmHg 95%
    13:00 +2°C° 0.1 mm 3 mps 733 mmHg 94%
    14:00 +2°C° 0.1 mm 3 mps 733 mmHg 92%
    15:00 +1°C° 0 mm 3 mps 733 mmHg 92%
    16:00 +1°C° 0 mm 3 mps 734 mmHg 93%
    17:00 +1°C° 0 mm 2 mps 734 mmHg 93%
    18:00 +1°C° 0 mm 2 mps 734 mmHg 94%
    19:00 -1°C° 0 mm 2 mps 735 mmHg 94%
    20:00 -1°C° 0 mm 2 mps 735 mmHg 95%
    21:00 -2°C° 0 mm 2 mps 735 mmHg 95%
    22:00 -2°C° 0 mm 2 mps 736 mmHg 95%
    23:00 -2°C° 0 mm 2 mps 736 mmHg 96%
    Show more